Location: Street
(51.1247°N, 2.7429°W)
Time: 05:49:21
(UTC+00:00)

SR - Pass Details

Date: 30 November 2020
Orbit: 575 x 880 km, 66.7° (Epoch: 25 January)

Event Time Altitude Azimuth Distance (km) Brightness Sun altitude
Rises 04:07:54 0° 313° (NW) 3,204 - -34.1°
Reaches altitude 10° 04:10:43 10° 298° (WNW) 2,330 - -33.7°
Maximum altitude 04:14:41 21° 250° (WSW) 1,732 - -33.1°
Drops below altitude 10° 04:18:51 10° 203° (SSW) 2,450 - -32.4°
Sets 04:21:54 0° 188° (S) 3,417 - -32.0°
